星链-5322 (STARLINK-5322 )

导读 | 星芒AI

STARLINK-5322 是 SpaceX Starlink 卫星互联网项目中的一颗低轨通信卫星。它属于 Starlink 任务中的第二批卫星(5322 为序列号),于 2021 年发射,旨在为全球用户提供高速互联网服务。该卫星运行在约 550 公里的轨道高度,采用先进的相控阵天线和激光通信技术,以提高连接速度和稳定性。作为 Starlink 网络的一部分,STARLINK-5322 有助于扩大覆盖范围,特别是在偏远和网络基础设施不足的地区。

基本信息
目录编号:
55303
目录名称:
STARLINK-5322
国际标识:
2023-010AL
轨道中心:
EARTH
卫星名称:
星链-5322
卫星全名:
星链-5322 (STARLINK-5322 )
卫星状态:
在轨 (已飞行1067 天)
发射日期:
2023-01-19 UTC
国别 :
美国 (US)
星等 :
--
轨道信息
数据来源 国际轨道数据
星历时间: 2025-12-21T11:10:46+0800
8小时前
查看轨道信息
半长轴: 6950.191km
偏心率: 0.0002703
轨道倾角: 69.998°
近地点辐角 272.507°
升交点赤经 242.323°
平近点角 87.577°
近地点: 570.175km
远地点: 573.933km
周期: 96.107分钟
每日圈数: 14.983308
详细信息
固有亮度:
5
最大亮度:
2.5
卫星平台:
Starlink v1.5
覆盖范围:
全球
运营商:
太空探索技术公司
运营商所在国:
美国
制造商(研发单位):
太空探索技术公司
制造商所在国:
美国
使用方式:
暂无
卫星简介
星链(Starlink)计划是由太空探索技术公司(SpaceX)提出的一个巨型低轨卫星互联网星座项目,计划在2019年至2024年间在太空搭建由约1.2万颗卫星组成的“星链”网络,其中1584颗将部署在地球上空550千米处的近地轨道,并从2020年开始工作。该卫星仍在工作。
2D轨道图
3D轨道图
轨道高度分析图
轨道倾角分析图
轨道综合分析图
查看轨道综合分析图